FENGYUN 1C DEB, 30893

Orbit data source: Space-Track

FENGYUN 1C DEB, 30893 is space debris in SSO originally from a launch on Mon, 10 May 1999 UTC launched from the Taiyaun Space Center, China (TSC). Fengyun 1C debris stems from the Chinese weather satellite Fengyun-1C, which was intentionally destroyed by a Chinese anti-satellite missile in 2007. This event dramatically increased the amount of space debris, with thousands of trackable fragments posing hazards to satellites and human spaceflight. The Fengyun 1C debris cloud has become a focal point in discussions about space sustainability and the need for international regulations to prevent the creation of new debris.

Loading next visibility...
Identifier
30893, 1999-025AYF
Orbit
SSO
Country
Flag of CNCN / PRC
Related business
Manufacturer
Unknown
Mission
Spacecraft
Bus & Motor
Unknown
Mass
Unknown
Launch date (UTC)
1999-05-10 (27 years ago)
Launch vehicle
Unknown
Launch site
Taiyaun Space Center, China (TSC)
Object type
Payload
Rocket body
Debris
Shape & HBR
Unknown shape, 0.1 m
Radar Cross Section
Small (<0.1 m²)

Expand to show TLE details & history
Last TLE update: 1 month ago

TLE from 1 month ago
0 FENGYUN 1C DEB
1 30893U 99025AYF 26139.31065215  .00000823  00000-0  43556-3 0  9991
2 30893  98.2417 155.0097 0307416  11.6163   3.3518 13.94548815970815
Epoch: 2026-05-19T07:27Z
TLE epoch observation values (Epoch: 2026-05-19T07:27:20.345Z)
Latitude
14.99772°
Longitude
163.97668°
Altitude
691.157 km
Speed
7.626 km/s
True Right ascension
10h 11m 11s
True Declination
14° 54' 40"
Sunlit
Object was in daylight at epoch
Visualization orbit readout
Latitude
Unknown
Longitude
Unknown
Altitude
Unknown
Speed
Unknown
Apparent Right ascension
Unknown
Apparent Declination
Unknown
Sunlit
N/A
Visualization observer readout
Local Sidereal Time
08:50:14
Azimuth
Unknown
Elevation
Unknown
Doppler factor
Unknown
Orbital elements
Apogee altitude
1,133.946 km
Perigee altitude
685.854 km
Semi-major axis
7,288.037 km
Eccentricity
0.03074
Inclination
98.2417°
RAAN
155.0097°
Arg. of periapsis
11.6163°
True anomaly
3.56596°
Mean anomaly
3.3518°
Eccentric anomaly
3.45804°
Mean motion
3.48841 °/min
Orbital period
103.2 mins
BSTAR
0.00043556
Loading maneuver chart data...
Computing Atmospheric mass density...
Loading historical data...
Loading historical data...
Loading historical data...
Loading historical data...
Loading historical data...
Loading historical data...
Loading historical data...

Documentation

Showing up to 5 results
|